sat.trackr.live / text

‹ back to catalog

STARLINK-5184

NORAD 54087 · 2022-136AN

PAYLOAD ACTIVE UNKNOWN

§ Identity

Operator
Country
US
Launch date
2022-10-20
Launch site
AFETR
Launch vehicle
Mass (kg)
RCS (m²)

Purposes: comms

External: N2YO · Heavens-Above · Gunter

§ Orbital elements

Epoch: 2026-09-20T22:00:03.000096Z

Period
94.44 min
Inclination
53.1605°
Eccentricity
0.0001206
Mean motion
15.24713456 rev/d
Perigee alt
490.8 km
Apogee alt
492.5 km
Semi-major
6,869.8 km
B*
2.9098e-4
RAAN
175.8548°
Arg perigee
96.2550°
Mean anomaly
273.6562°
Rev number
574

§ Raw data

STARLINK-51841 54087U 22136AN  26263.91670139  .00006961  00000+0  29098-3 0  99952 54087  53.1605 175.8548 0001206  96.2550 273.6562 15.24713456  5745

JSON: /api/v1/satellites/54087 · /tle

For live sub-satellite position, see the globe view (requires WebGL).

§ Visibility from observer

Set your observer location to see the next 7 days of passes ≥ 10°. The values pass through the URL so the page stays shareable.

No JS? Fill the form by hand. The geolocation button needs JavaScript.